owner,sensor,date,latitude,longitude,vertical_datum,sea_water_practical_salinity,qcFlag 
LUMCON,ioos:station:LUMCON:102:1,2019-05-01T00:00:00Z,29.1870,-90.6093,1.08,16.37,11111222 
LUMCON,ioos:station:LUMCON:102:1,2019-05-01T00:15:00Z,29.1870,-90.6093,1.08,16.37,11111222 
LUMCON,ioos:station:LUMCON:102:1,2019-05-01T00:30:00Z,29.1870,-90.6093,1.08,16.37,11111222 
LUMCON,ioos:station:LUMCON:102:1,2019-05-01T00:45:00Z,29.1870,-90.6093,1.08,16.37,11111222 
LUMCON,ioos:station:LUMCON:102:1,2019-05-01T01:00:00Z,29.1870,-90.6093,1.08,16.37,11111222 
LUMCON,ioos:station:LUMCON:102:1,2019-05-01T01:15:00Z,29.1870,-90.6093,1.08,16.37,11111222 
LUMCON,ioos:station:LUMCON:102:1,2019-05-01T01:30:00Z,29.1870,-90.6093,1.08,16.37,11111222 
LUMCON,ioos:station:LUMCON:102:1,2019-05-01T01:45:00Z,29.1870,-90.6093,1.08,16.37,11111222 
LUMCON,ioos:station:LUMCON:102:1,2019-05-01T02:00:00Z,29.1870,-90.6093,1.08,16.37,11111222 
LUMCON,ioos:station:LUMCON:102:1,2019-05-01T02:15:00Z,29.1870,-90.6093,1.08,16.37,11111222 
LUMCON,ioos:station:LUMCON:102:1,2019-05-01T02:30:00Z,29.1870,-90.6093,1.08,16.37,11111222 
LUMCON,ioos:station:LUMCON:102:1,2019-05-01T02:45:00Z,29.1870,-90.6093,1.08,16.37,11111222 
LUMCON,ioos:station:LUMCON:102:1,2019-05-01T03:00:00Z,29.1870,-90.6093,1.08,16.37,11111222 
LUMCON,ioos:station:LUMCON:102:1,2019-05-01T03:15:00Z,29.1870,-90.6093,1.08,16.37,11111222 
LUMCON,ioos:station:LUMCON:102:1,2019-05-01T03:30:00Z,29.1870,-90.6093,1.08,16.37,11111222 
LUMCON,ioos:station:LUMCON:102:1,2019-05-01T03:45:00Z,29.1870,-90.6093,1.08,16.37,11111222 
LUMCON,ioos:station:LUMCON:102:1,2019-05-01T04:00:00Z,29.1870,-90.6093,1.08,16.37,11111222 
LUMCON,ioos:station:LUMCON:102:1,2019-05-01T04:15:00Z,29.1870,-90.6093,1.08,16.37,11111222 
LUMCON,ioos:station:LUMCON:102:1,2019-05-01T04:30:00Z,29.1870,-90.6093,1.08,16.37,11111222 
LUMCON,ioos:station:LUMCON:102:1,2019-05-01T04:45:00Z,29.1870,-90.6093,1.08,16.37,11111222 
LUMCON,ioos:station:LUMCON:102:1,2019-05-01T05:00:00Z,29.1870,-90.6093,1.08,16.37,11111222 
LUMCON,ioos:station:LUMCON:102:1,2019-05-01T05:15:00Z,29.1870,-90.6093,1.08,16.37,11111222 
LUMCON,ioos:station:LUMCON:102:1,2019-05-01T05:30:00Z,29.1870,-90.6093,1.08,16.37,11111222 
LUMCON,ioos:station:LUMCON:102:1,2019-05-01T05:45:00Z,29.1870,-90.6093,1.08,16.37,11111222 
LUMCON,ioos:station:LUMCON:102:1,2019-05-01T06:00:00Z,29.1870,-90.6093,1.08,16.37,11111222 
LUMCON,ioos:station:LUMCON:102:1,2019-05-01T06:15:00Z,29.1870,-90.6093,1.08,16.37,11111222 
LUMCON,ioos:station:LUMCON:102:1,2019-05-01T06:30:00Z,29.1870,-90.6093,1.08,16.37,11111222 
LUMCON,ioos:station:LUMCON:102:1,2019-05-01T06:45:00Z,29.1870,-90.6093,1.08,16.37,11111222 
LUMCON,ioos:station:LUMCON:102:1,2019-05-01T07:00:00Z,29.1870,-90.6093,1.08,16.37,11111222 
LUMCON,ioos:station:LUMCON:102:1,2019-05-01T07:15:00Z,29.1870,-90.6093,1.08,16.37,11111222 
LUMCON,ioos:station:LUMCON:102:1,2019-05-01T07:30:00Z,29.1870,-90.6093,1.08,16.37,11111222 
LUMCON,ioos:station:LUMCON:102:1,2019-05-01T07:45:00Z,29.1870,-90.6093,1.08,16.37,11111222 
LUMCON,ioos:station:LUMCON:102:1,2019-05-01T08:00:00Z,29.1870,-90.6093,1.08,16.37,11111222 
LUMCON,ioos:station:LUMCON:102:1,2019-05-01T08:15:00Z,29.1870,-90.6093,1.08,16.37,11111222 
LUMCON,ioos:station:LUMCON:102:1,2019-05-01T08:30:00Z,29.1870,-90.6093,1.08,16.37,11111222 
LUMCON,ioos:station:LUMCON:102:1,2019-05-01T08:45:00Z,29.1870,-90.6093,1.08,16.37,11111222 
LUMCON,ioos:station:LUMCON:102:1,2019-05-01T09:00:00Z,29.1870,-90.6093,1.08,16.37,11111222 
LUMCON,ioos:station:LUMCON:102:1,2019-05-01T09:15:00Z,29.1870,-90.6093,1.08,16.37,11111222 
LUMCON,ioos:station:LUMCON:102:1,2019-05-01T09:30:00Z,29.1870,-90.6093,1.08,16.37,11111222 
LUMCON,ioos:station:LUMCON:102:1,2019-05-01T09:45:00Z,29.1870,-90.6093,1.08,16.37,11111222 
LUMCON,ioos:station:LUMCON:102:1,2019-05-01T10:00:00Z,29.1870,-90.6093,1.08,16.37,11111222 
LUMCON,ioos:station:LUMCON:102:1,2019-05-01T10:15:00Z,29.1870,-90.6093,1.08,16.37,11111222 
LUMCON,ioos:station:LUMCON:102:1,2019-05-01T10:30:00Z,29.1870,-90.6093,1.08,16.37,11111222 
LUMCON,ioos:station:LUMCON:102:1,2019-05-01T10:45:00Z,29.1870,-90.6093,1.08,16.37,11111222 
LUMCON,ioos:station:LUMCON:102:1,2019-05-01T11:00:00Z,29.1870,-90.6093,1.08,16.37,11111222 
LUMCON,ioos:station:LUMCON:102:1,2019-05-01T11:15:00Z,29.1870,-90.6093,1.08,16.37,11111222 
LUMCON,ioos:station:LUMCON:102:1,2019-05-01T11:30:00Z,29.1870,-90.6093,1.08,16.37,11111222 
LUMCON,ioos:station:LUMCON:102:1,2019-05-01T11:45:00Z,29.1870,-90.6093,1.08,16.37,11111222 
LUMCON,ioos:station:LUMCON:102:1,2019-05-01T12:00:00Z,29.1870,-90.6093,1.08,16.37,11111222 
LUMCON,ioos:station:LUMCON:102:1,2019-05-01T12:15:00Z,29.1870,-90.6093,1.08,16.37,11111222 
LUMCON,ioos:station:LUMCON:102:1,2019-05-01T12:30:00Z,29.1870,-90.6093,1.08,16.37,11111222 
LUMCON,ioos:station:LUMCON:102:1,2019-05-01T12:45:00Z,29.1870,-90.6093,1.08,16.37,11111222 
LUMCON,ioos:station:LUMCON:102:1,2019-05-01T13:00:00Z,29.1870,-90.6093,1.08,16.37,11111222 
LUMCON,ioos:station:LUMCON:102:1,2019-05-01T13:15:00Z,29.1870,-90.6093,2.43,17.37,11111222 
LUMCON,ioos:station:LUMCON:102:1,2019-05-01T13:30:00Z,29.1870,-90.6093,2.39,17.48,11111222 
LUMCON,ioos:station:LUMCON:102:1,2019-05-01T13:45:00Z,29.1870,-90.6093,2.36,17.52,11111222 
LUMCON,ioos:station:LUMCON:102:1,2019-05-01T14:00:00Z,29.1870,-90.6093,2.37,17.49,11111222 
LUMCON,ioos:station:LUMCON:102:1,2019-05-01T14:15:00Z,29.1870,-90.6093,2.36,17.54,11111222 
LUMCON,ioos:station:LUMCON:102:1,2019-05-01T14:30:00Z,29.1870,-90.6093,2.37,17.53,11111222 
LUMCON,ioos:station:LUMCON:102:1,2019-05-01T14:45:00Z,29.1870,-90.6093,2.37,18.05,11111222 
LUMCON,ioos:station:LUMCON:102:1,2019-05-01T15:00:00Z,29.1870,-90.6093,2.37,18.31,11111222 
LUMCON,ioos:station:LUMCON:102:1,2019-05-01T15:15:00Z,29.1870,-90.6093,2.37,18.53,11111222 
LUMCON,ioos:station:LUMCON:102:1,2019-05-01T15:30:00Z,29.1870,-90.6093,2.38,19.05,11111222 
LUMCON,ioos:station:LUMCON:102:1,2019-05-01T15:45:00Z,29.1870,-90.6093,2.37,19.23,11111222 
LUMCON,ioos:station:LUMCON:102:1,2019-05-01T16:00:00Z,29.1870,-90.6093,2.37,19.35,11111222 
LUMCON,ioos:station:LUMCON:102:1,2019-05-01T16:15:00Z,29.1870,-90.6093,2.38,19.14,11111222 
LUMCON,ioos:station:LUMCON:102:1,2019-05-01T16:30:00Z,29.1870,-90.6093,2.37,19.1,11111222 
LUMCON,ioos:station:LUMCON:102:1,2019-05-01T16:45:00Z,29.1870,-90.6093,2.37,18.89,11111222 
LUMCON,ioos:station:LUMCON:102:1,2019-05-01T17:00:00Z,29.1870,-90.6093,2.36,18.81,11111222 
LUMCON,ioos:station:LUMCON:102:1,2019-05-01T17:15:00Z,29.1870,-90.6093,2.37,18.75,11111222 
LUMCON,ioos:station:LUMCON:102:1,2019-05-01T17:30:00Z,29.1870,-90.6093,2.36,18.5,11111222 
LUMCON,ioos:station:LUMCON:102:1,2019-05-01T17:45:00Z,29.1870,-90.6093,2.36,18.48,11111222 
LUMCON,ioos:station:LUMCON:102:1,2019-05-01T18:00:00Z,29.1870,-90.6093,2.35,18.31,11111222 
LUMCON,ioos:station:LUMCON:102:1,2019-05-01T18:15:00Z,29.1870,-90.6093,2.35,18.08,11111222 
LUMCON,ioos:station:LUMCON:102:1,2019-05-01T18:30:00Z,29.1870,-90.6093,2.33,17.87,11111222 
LUMCON,ioos:station:LUMCON:102:1,2019-05-01T18:45:00Z,29.1870,-90.6093,2.32,17.9,11111222 
LUMCON,ioos:station:LUMCON:102:1,2019-05-01T19:00:00Z,29.1870,-90.6093,2.33,17.45,11111222 
LUMCON,ioos:station:LUMCON:102:1,2019-05-01T19:15:00Z,29.1870,-90.6093,2.31,17.12,11111222 
LUMCON,ioos:station:LUMCON:102:1,2019-05-01T19:30:00Z,29.1870,-90.6093,2.31,16.7,11111222 
LUMCON,ioos:station:LUMCON:102:1,2019-05-01T19:45:00Z,29.1870,-90.6093,2.31,16.29,11111222 
LUMCON,ioos:station:LUMCON:102:1,2019-05-01T20:00:00Z,29.1870,-90.6093,2.29,15.8,11111222 
LUMCON,ioos:station:LUMCON:102:1,2019-05-01T20:15:00Z,29.1870,-90.6093,2.29,15.48,11111222 
LUMCON,ioos:station:LUMCON:102:1,2019-05-01T20:30:00Z,29.1870,-90.6093,2.28,15.52,11111222 
LUMCON,ioos:station:LUMCON:102:1,2019-05-01T20:45:00Z,29.1870,-90.6093,2.25,15.31,11111222 
LUMCON,ioos:station:LUMCON:102:1,2019-05-01T21:00:00Z,29.1870,-90.6093,2.26,15.02,11111222 
LUMCON,ioos:station:LUMCON:102:1,2019-05-01T21:15:00Z,29.1870,-90.6093,2.25,14.79,11111222 
LUMCON,ioos:station:LUMCON:102:1,2019-05-01T21:30:00Z,29.1870,-90.6093,2.24,14.51,11111222 
LUMCON,ioos:station:LUMCON:102:1,2019-05-01T21:45:00Z,29.1870,-90.6093,2.24,14.34,11111222 
LUMCON,ioos:station:LUMCON:102:1,2019-05-01T22:00:00Z,29.1870,-90.6093,2.22,14.22,11111222 
LUMCON,ioos:station:LUMCON:102:1,2019-05-01T22:15:00Z,29.1870,-90.6093,2.23,14.17,11111222 
LUMCON,ioos:station:LUMCON:102:1,2019-05-01T22:30:00Z,29.1870,-90.6093,2.23,14.19,11111222 
LUMCON,ioos:station:LUMCON:102:1,2019-05-01T22:45:00Z,29.1870,-90.6093,2.23,14.15,11111222 
LUMCON,ioos:station:LUMCON:102:1,2019-05-01T23:00:00Z,29.1870,-90.6093,2.23,14.04,11111222 
LUMCON,ioos:station:LUMCON:102:1,2019-05-01T23:15:00Z,29.1870,-90.6093,2.22,13.93,11111222 
LUMCON,ioos:station:LUMCON:102:1,2019-05-01T23:30:00Z,29.1870,-90.6093,2.23,13.85,11111222 
LUMCON,ioos:station:LUMCON:102:1,2019-05-01T23:45:00Z,29.1870,-90.6093,2.23,13.75,11111222 
LUMCON,ioos:station:LUMCON:102:1,2019-05-02T00:00:00Z,29.1870,-90.6093,2.21,13.75,11111222 
LUMCON,ioos:station:LUMCON:102:1,2019-05-02T00:15:00Z,29.1870,-90.6093,2.21,13.78,11111222 
LUMCON,ioos:station:LUMCON:102:1,2019-05-02T00:30:00Z,29.1870,-90.6093,2.23,14.19,11111222 
LUMCON,ioos:station:LUMCON:102:1,2019-05-02T00:45:00Z,29.1870,-90.6093,2.23,14.85,11111222 
LUMCON,ioos:station:LUMCON:102:1,2019-05-02T01:00:00Z,29.1870,-90.6093,2.22,14.79,11111222 
LUMCON,ioos:station:LUMCON:102:1,2019-05-02T01:15:00Z,29.1870,-90.6093,2.23,15.06,11111222 
LUMCON,ioos:station:LUMCON:102:1,2019-05-02T01:30:00Z,29.1870,-90.6093,2.24,14.9,11111222 
LUMCON,ioos:station:LUMCON:102:1,2019-05-02T01:45:00Z,29.1870,-90.6093,2.25,14.98,11111222 
LUMCON,ioos:station:LUMCON:102:1,2019-05-02T02:00:00Z,29.1870,-90.6093,2.25,16.16,11111222 
LUMCON,ioos:station:LUMCON:102:1,2019-05-02T02:15:00Z,29.1870,-90.6093,2.25,16.39,11111222 
LUMCON,ioos:station:LUMCON:102:1,2019-05-02T02:30:00Z,29.1870,-90.6093,2.25,16.85,11111222 
LUMCON,ioos:station:LUMCON:102:1,2019-05-02T02:45:00Z,29.1870,-90.6093,2.26,17.17,11111222 
LUMCON,ioos:station:LUMCON:102:1,2019-05-02T03:00:00Z,29.1870,-90.6093,2.27,17.44,11111222 
LUMCON,ioos:station:LUMCON:102:1,2019-05-02T03:15:00Z,29.1870,-90.6093,2.29,18.15,11111222 
LUMCON,ioos:station:LUMCON:102:1,2019-05-02T03:30:00Z,29.1870,-90.6093,2.29,18.64,11111222 
LUMCON,ioos:station:LUMCON:102:1,2019-05-02T03:45:00Z,29.1870,-90.6093,2.3,19.75,11111222 
LUMCON,ioos:station:LUMCON:102:1,2019-05-02T04:00:00Z,29.1870,-90.6093,2.33,19.81,11111222 
LUMCON,ioos:station:LUMCON:102:1,2019-05-02T04:15:00Z,29.1870,-90.6093,2.34,20.27,11111222 
LUMCON,ioos:station:LUMCON:102:1,2019-05-02T04:30:00Z,29.1870,-90.6093,2.34,20.45,11111222 
LUMCON,ioos:station:LUMCON:102:1,2019-05-02T04:45:00Z,29.1870,-90.6093,2.35,20.46,11111222 
LUMCON,ioos:station:LUMCON:102:1,2019-05-02T05:00:00Z,29.1870,-90.6093,2.37,20.92,11111222 
LUMCON,ioos:station:LUMCON:102:1,2019-05-02T05:15:00Z,29.1870,-90.6093,2.35,21.01,11111222 
LUMCON,ioos:station:LUMCON:102:1,2019-05-02T05:30:00Z,29.1870,-90.6093,2.36,21.14,11111222 
LUMCON,ioos:station:LUMCON:102:1,2019-05-02T05:45:00Z,29.1870,-90.6093,2.38,21.18,11111222 
LUMCON,ioos:station:LUMCON:102:1,2019-05-02T06:00:00Z,29.1870,-90.6093,2.37,21.2,11111222 
LUMCON,ioos:station:LUMCON:102:1,2019-05-02T06:15:00Z,29.1870,-90.6093,2.39,21.21,11111222 
LUMCON,ioos:station:LUMCON:102:1,2019-05-02T06:30:00Z,29.1870,-90.6093,2.38,21.17,11111222 
LUMCON,ioos:station:LUMCON:102:1,2019-05-02T06:45:00Z,29.1870,-90.6093,2.41,21.19,11111222 
LUMCON,ioos:station:LUMCON:102:1,2019-05-02T07:00:00Z,29.1870,-90.6093,2.39,21.25,11111222 
LUMCON,ioos:station:LUMCON:102:1,2019-05-02T07:15:00Z,29.1870,-90.6093,2.4,21.15,11111222 
LUMCON,ioos:station:LUMCON:102:1,2019-05-02T07:30:00Z,29.1870,-90.6093,2.4,21.2,11111222 
LUMCON,ioos:station:LUMCON:102:1,2019-05-02T07:45:00Z,29.1870,-90.6093,2.39,21.05,11111222 
LUMCON,ioos:station:LUMCON:102:1,2019-05-02T08:00:00Z,29.1870,-90.6093,2.37,21.24,11111222 
LUMCON,ioos:station:LUMCON:102:1,2019-05-02T08:15:00Z,29.1870,-90.6093,2.36,21.17,11111222 
LUMCON,ioos:station:LUMCON:102:1,2019-05-02T08:30:00Z,29.1870,-90.6093,2.37,21.14,11111222 
LUMCON,ioos:station:LUMCON:102:1,2019-05-02T08:45:00Z,29.1870,-90.6093,2.35,21.22,11111222 
LUMCON,ioos:station:LUMCON:102:1,2019-05-02T09:00:00Z,29.1870,-90.6093,2.36,21.4,11111222 
LUMCON,ioos:station:LUMCON:102:1,2019-05-02T09:15:00Z,29.1870,-90.6093,2.34,21.43,11111222 
LUMCON,ioos:station:LUMCON:102:1,2019-05-02T09:30:00Z,29.1870,-90.6093,2.35,21.36,11111222 
LUMCON,ioos:station:LUMCON:102:1,2019-05-02T09:45:00Z,29.1870,-90.6093,2.33,21.33,11111222 
LUMCON,ioos:station:LUMCON:102:1,2019-05-02T10:00:00Z,29.1870,-90.6093,2.33,21.12,11111222 
LUMCON,ioos:station:LUMCON:102:1,2019-05-02T10:15:00Z,29.1870,-90.6093,2.32,20.88,11111222 
LUMCON,ioos:station:LUMCON:102:1,2019-05-02T10:30:00Z,29.1870,-90.6093,2.32,20.8,11111222 
LUMCON,ioos:station:LUMCON:102:1,2019-05-02T10:45:00Z,29.1870,-90.6093,2.33,20.7,11111222 
LUMCON,ioos:station:LUMCON:102:1,2019-05-02T11:00:00Z,29.1870,-90.6093,2.34,20.59,11111222 
LUMCON,ioos:station:LUMCON:102:1,2019-05-02T11:15:00Z,29.1870,-90.6093,2.37,20.48,11111222 
LUMCON,ioos:station:LUMCON:102:1,2019-05-02T11:30:00Z,29.1870,-90.6093,2.36,20.38,11111222 
LUMCON,ioos:station:LUMCON:102:1,2019-05-02T11:45:00Z,29.1870,-90.6093,2.36,20.27,11111222 
LUMCON,ioos:station:LUMCON:102:1,2019-05-02T12:00:00Z,29.1870,-90.6093,2.35,20.18,11111222 
LUMCON,ioos:station:LUMCON:102:1,2019-05-02T12:15:00Z,29.1870,-90.6093,2.36,20.13,11111222 
LUMCON,ioos:station:LUMCON:102:1,2019-05-02T12:30:00Z,29.1870,-90.6093,2.37,20.12,11111222 
LUMCON,ioos:station:LUMCON:102:1,2019-05-02T12:45:00Z,29.1870,-90.6093,2.36,20.07,11111222 
LUMCON,ioos:station:LUMCON:102:1,2019-05-02T13:00:00Z,29.1870,-90.6093,2.41,20.0,11111222 
LUMCON,ioos:station:LUMCON:102:1,2019-05-02T13:15:00Z,29.1870,-90.6093,2.38,19.94,11111222 
LUMCON,ioos:station:LUMCON:102:1,2019-05-02T13:30:00Z,29.1870,-90.6093,2.39,19.9,11111222 
LUMCON,ioos:station:LUMCON:102:1,2019-05-02T13:45:00Z,29.1870,-90.6093,2.39,20.08,11111222 
LUMCON,ioos:station:LUMCON:102:1,2019-05-02T14:00:00Z,29.1870,-90.6093,2.41,20.33,11111222 
LUMCON,ioos:station:LUMCON:102:1,2019-05-02T14:15:00Z,29.1870,-90.6093,2.41,20.8,11111222 
LUMCON,ioos:station:LUMCON:102:1,2019-05-02T14:30:00Z,29.1870,-90.6093,2.41,21.39,11111222 
LUMCON,ioos:station:LUMCON:102:1,2019-05-02T14:45:00Z,29.1870,-90.6093,2.4,21.73,11111222 
LUMCON,ioos:station:LUMCON:102:1,2019-05-02T15:00:00Z,29.1870,-90.6093,2.41,22.0,11111222 
LUMCON,ioos:station:LUMCON:102:1,2019-05-02T15:15:00Z,29.1870,-90.6093,2.41,22.0,11111222 
LUMCON,ioos:station:LUMCON:102:1,2019-05-02T15:30:00Z,29.1870,-90.6093,2.41,22.22,11111222 
LUMCON,ioos:station:LUMCON:102:1,2019-05-02T15:45:00Z,29.1870,-90.6093,2.4,22.18,11111222 
LUMCON,ioos:station:LUMCON:102:1,2019-05-02T16:00:00Z,29.1870,-90.6093,2.38,22.3,11111222 
LUMCON,ioos:station:LUMCON:102:1,2019-05-02T16:15:00Z,29.1870,-90.6093,2.4,22.34,11111222 
LUMCON,ioos:station:LUMCON:102:1,2019-05-02T16:30:00Z,29.1870,-90.6093,2.37,22.35,11111222 
LUMCON,ioos:station:LUMCON:102:1,2019-05-02T16:45:00Z,29.1870,-90.6093,2.36,22.29,11111222 
LUMCON,ioos:station:LUMCON:102:1,2019-05-02T17:00:00Z,29.1870,-90.6093,2.34,22.27,11111222 
LUMCON,ioos:station:LUMCON:102:1,2019-05-02T17:15:00Z,29.1870,-90.6093,2.35,22.2,11111222 
LUMCON,ioos:station:LUMCON:102:1,2019-05-02T17:30:00Z,29.1870,-90.6093,2.33,22.16,11111222 
LUMCON,ioos:station:LUMCON:102:1,2019-05-02T17:45:00Z,29.1870,-90.6093,2.32,22.15,11111222 
LUMCON,ioos:station:LUMCON:102:1,2019-05-02T18:00:00Z,29.1870,-90.6093,2.31,22.11,11111222 
LUMCON,ioos:station:LUMCON:102:1,2019-05-02T18:15:00Z,29.1870,-90.6093,2.28,21.95,11111222 
LUMCON,ioos:station:LUMCON:102:1,2019-05-02T18:30:00Z,29.1870,-90.6093,2.24,21.83,11111222 
LUMCON,ioos:station:LUMCON:102:1,2019-05-02T18:45:00Z,29.1870,-90.6093,2.23,21.63,11111222 
LUMCON,ioos:station:LUMCON:102:1,2019-05-02T19:00:00Z,29.1870,-90.6093,2.23,20.96,11111222 
LUMCON,ioos:station:LUMCON:102:1,2019-05-02T19:15:00Z,29.1870,-90.6093,2.22,20.65,11111222 
LUMCON,ioos:station:LUMCON:102:1,2019-05-02T19:30:00Z,29.1870,-90.6093,2.19,20.4,11111222 
LUMCON,ioos:station:LUMCON:102:1,2019-05-02T19:45:00Z,29.1870,-90.6093,2.18,20.04,11111222 
LUMCON,ioos:station:LUMCON:102:1,2019-05-02T20:00:00Z,29.1870,-90.6093,2.16,19.39,11111222 
LUMCON,ioos:station:LUMCON:102:1,2019-05-02T20:15:00Z,29.1870,-90.6093,2.16,18.7,11111222 
LUMCON,ioos:station:LUMCON:102:1,2019-05-02T20:30:00Z,29.1870,-90.6093,2.14,18.18,11111222 
LUMCON,ioos:station:LUMCON:102:1,2019-05-02T20:45:00Z,29.1870,-90.6093,2.15,17.97,11111222 
LUMCON,ioos:station:LUMCON:102:1,2019-05-02T21:00:00Z,29.1870,-90.6093,2.12,17.67,11111222 
LUMCON,ioos:station:LUMCON:102:1,2019-05-02T21:15:00Z,29.1870,-90.6093,2.11,17.27,11111222 
LUMCON,ioos:station:LUMCON:102:1,2019-05-02T21:30:00Z,29.1870,-90.6093,2.12,16.86,11111222 
LUMCON,ioos:station:LUMCON:102:1,2019-05-02T21:45:00Z,29.1870,-90.6093,2.1,16.74,11111222 
LUMCON,ioos:station:LUMCON:102:1,2019-05-02T22:00:00Z,29.1870,-90.6093,2.1,16.63,11111222 
LUMCON,ioos:station:LUMCON:102:1,2019-05-02T22:15:00Z,29.1870,-90.6093,2.1,16.52,11111222 
LUMCON,ioos:station:LUMCON:102:1,2019-05-02T22:30:00Z,29.1870,-90.6093,2.11,16.38,11111222 
LUMCON,ioos:station:LUMCON:102:1,2019-05-02T22:45:00Z,29.1870,-90.6093,2.11,16.53,11111222 
LUMCON,ioos:station:LUMCON:102:1,2019-05-02T23:00:00Z,29.1870,-90.6093,2.1,16.45,11111222 
LUMCON,ioos:station:LUMCON:102:1,2019-05-02T23:15:00Z,29.1870,-90.6093,2.12,16.57,11111222 
LUMCON,ioos:station:LUMCON:102:1,2019-05-02T23:30:00Z,29.1870,-90.6093,2.11,16.44,11111222 
LUMCON,ioos:station:LUMCON:102:1,2019-05-02T23:45:00Z,29.1870,-90.6093,2.09,16.75,11111222 
LUMCON,ioos:station:LUMCON:102:1,2019-05-03T00:00:00Z,29.1870,-90.6093,2.13,16.65,11111222 
LUMCON,ioos:station:LUMCON:102:1,2019-05-03T00:15:00Z,29.1870,-90.6093,2.13,16.99,11111222 
LUMCON,ioos:station:LUMCON:102:1,2019-05-03T00:30:00Z,29.1870,-90.6093,2.14,17.17,11111222 
LUMCON,ioos:station:LUMCON:102:1,2019-05-03T00:45:00Z,29.1870,-90.6093,2.14,16.93,11111222 
LUMCON,ioos:station:LUMCON:102:1,2019-05-03T01:00:00Z,29.1870,-90.6093,2.16,16.98,11111222 
LUMCON,ioos:station:LUMCON:102:1,2019-05-03T01:15:00Z,29.1870,-90.6093,2.17,16.97,11111222 
LUMCON,ioos:station:LUMCON:102:1,2019-05-03T01:30:00Z,29.1870,-90.6093,2.17,16.98,11111222 
LUMCON,ioos:station:LUMCON:102:1,2019-05-03T01:45:00Z,29.1870,-90.6093,2.17,16.97,11111222 
LUMCON,ioos:station:LUMCON:102:1,2019-05-03T02:00:00Z,29.1870,-90.6093,2.19,16.96,11111222 
LUMCON,ioos:station:LUMCON:102:1,2019-05-03T02:15:00Z,29.1870,-90.6093,2.19,16.97,11111222 
LUMCON,ioos:station:LUMCON:102:1,2019-05-03T02:30:00Z,29.1870,-90.6093,2.2,16.99,11111222 
LUMCON,ioos:station:LUMCON:102:1,2019-05-03T02:45:00Z,29.1870,-90.6093,2.2,17.0,11111222 
LUMCON,ioos:station:LUMCON:102:1,2019-05-03T03:00:00Z,29.1870,-90.6093,2.18,17.18,11111222 
LUMCON,ioos:station:LUMCON:102:1,2019-05-03T03:15:00Z,29.1870,-90.6093,2.2,17.05,11111222 
LUMCON,ioos:station:LUMCON:102:1,2019-05-03T03:30:00Z,29.1870,-90.6093,2.21,17.03,11111222 
LUMCON,ioos:station:LUMCON:102:1,2019-05-03T03:45:00Z,29.1870,-90.6093,2.2,17.04,11111222 
LUMCON,ioos:station:LUMCON:102:1,2019-05-03T04:00:00Z,29.1870,-90.6093,2.23,17.03,11111222 
LUMCON,ioos:station:LUMCON:102:1,2019-05-03T04:15:00Z,29.1870,-90.6093,2.21,17.06,11111222 
LUMCON,ioos:station:LUMCON:102:1,2019-05-03T04:30:00Z,29.1870,-90.6093,2.24,17.11,11111222 
LUMCON,ioos:station:LUMCON:102:1,2019-05-03T04:45:00Z,29.1870,-90.6093,2.26,17.76,11111222 
LUMCON,ioos:station:LUMCON:102:1,2019-05-03T05:00:00Z,29.1870,-90.6093,2.25,18.17,11111222 
LUMCON,ioos:station:LUMCON:102:1,2019-05-03T05:15:00Z,29.1870,-90.6093,2.24,18.23,11111222 
LUMCON,ioos:station:LUMCON:102:1,2019-05-03T05:30:00Z,29.1870,-90.6093,2.24,18.22,11111222 
LUMCON,ioos:station:LUMCON:102:1,2019-05-03T05:45:00Z,29.1870,-90.6093,2.23,18.29,11111222 
LUMCON,ioos:station:LUMCON:102:1,2019-05-03T06:00:00Z,29.1870,-90.6093,2.23,18.48,11111222 
LUMCON,ioos:station:LUMCON:102:1,2019-05-03T06:15:00Z,29.1870,-90.6093,2.23,18.7,11111222 
LUMCON,ioos:station:LUMCON:102:1,2019-05-03T06:30:00Z,29.1870,-90.6093,2.26,19.08,11111222 
LUMCON,ioos:station:LUMCON:102:1,2019-05-03T06:45:00Z,29.1870,-90.6093,2.26,19.4,11111222 
LUMCON,ioos:station:LUMCON:102:1,2019-05-03T07:00:00Z,29.1870,-90.6093,2.28,19.83,11111222 
LUMCON,ioos:station:LUMCON:102:1,2019-05-03T07:15:00Z,29.1870,-90.6093,2.29,20.0,11111222 
LUMCON,ioos:station:LUMCON:102:1,2019-05-03T07:30:00Z,29.1870,-90.6093,2.27,20.03,11111222 
LUMCON,ioos:station:LUMCON:102:1,2019-05-03T07:45:00Z,29.1870,-90.6093,2.28,20.07,11111222 
LUMCON,ioos:station:LUMCON:102:1,2019-05-03T08:00:00Z,29.1870,-90.6093,2.28,20.09,11111222 
LUMCON,ioos:station:LUMCON:102:1,2019-05-03T08:15:00Z,29.1870,-90.6093,2.27,20.14,11111222 
LUMCON,ioos:station:LUMCON:102:1,2019-05-03T08:30:00Z,29.1870,-90.6093,2.25,20.16,11111222 
LUMCON,ioos:station:LUMCON:102:1,2019-05-03T08:45:00Z,29.1870,-90.6093,2.26,20.2,11111222 
LUMCON,ioos:station:LUMCON:102:1,2019-05-03T09:00:00Z,29.1870,-90.6093,2.24,20.22,11111222 
LUMCON,ioos:station:LUMCON:102:1,2019-05-03T09:15:00Z,29.1870,-90.6093,2.24,20.22,11111222 
LUMCON,ioos:station:LUMCON:102:1,2019-05-03T09:30:00Z,29.1870,-90.6093,2.25,20.23,11111222 
LUMCON,ioos:station:LUMCON:102:1,2019-05-03T09:45:00Z,29.1870,-90.6093,2.24,20.24,11111222 
LUMCON,ioos:station:LUMCON:102:1,2019-05-03T10:00:00Z,29.1870,-90.6093,2.25,20.23,11111222 
LUMCON,ioos:station:LUMCON:102:1,2019-05-03T10:15:00Z,29.1870,-90.6093,2.25,20.24,11111222 
LUMCON,ioos:station:LUMCON:102:1,2019-05-03T10:30:00Z,29.1870,-90.6093,2.25,20.27,11111222 
LUMCON,ioos:station:LUMCON:102:1,2019-05-03T10:45:00Z,29.1870,-90.6093,2.28,20.28,11111222 
LUMCON,ioos:station:LUMCON:102:1,2019-05-03T11:00:00Z,29.1870,-90.6093,2.27,20.28,11111222 
LUMCON,ioos:station:LUMCON:102:1,2019-05-03T11:15:00Z,29.1870,-90.6093,2.28,20.29,11111222 
LUMCON,ioos:station:LUMCON:102:1,2019-05-03T11:30:00Z,29.1870,-90.6093,2.29,20.29,11111222 
LUMCON,ioos:station:LUMCON:102:1,2019-05-03T11:45:00Z,29.1870,-90.6093,2.3,20.3,11111222 
LUMCON,ioos:station:LUMCON:102:1,2019-05-03T12:00:00Z,29.1870,-90.6093,2.31,20.37,11111222 
LUMCON,ioos:station:LUMCON:102:1,2019-05-03T12:15:00Z,29.1870,-90.6093,2.32,20.57,11111222 
LUMCON,ioos:station:LUMCON:102:1,2019-05-03T12:30:00Z,29.1870,-90.6093,2.28,20.57,11111222 
LUMCON,ioos:station:LUMCON:102:1,2019-05-03T12:45:00Z,29.1870,-90.6093,2.29,20.49,11111222 
LUMCON,ioos:station:LUMCON:102:1,2019-05-03T13:00:00Z,29.1870,-90.6093,2.27,20.5,11111222 
LUMCON,ioos:station:LUMCON:102:1,2019-05-03T13:15:00Z,29.1870,-90.6093,2.29,20.5,11111222 
LUMCON,ioos:station:LUMCON:102:1,2019-05-03T13:30:00Z,29.1870,-90.6093,2.27,20.49,11111222 
LUMCON,ioos:station:LUMCON:102:1,2019-05-03T13:45:00Z,29.1870,-90.6093,2.28,20.51,11111222 
LUMCON,ioos:station:LUMCON:102:1,2019-05-03T14:00:00Z,29.1870,-90.6093,2.3,20.51,11111222 
LUMCON,ioos:station:LUMCON:102:1,2019-05-03T14:15:00Z,29.1870,-90.6093,2.29,20.5,11111222 
LUMCON,ioos:station:LUMCON:102:1,2019-05-03T14:30:00Z,29.1870,-90.6093,2.3,20.49,11111222 
LUMCON,ioos:station:LUMCON:102:1,2019-05-03T14:45:00Z,29.1870,-90.6093,2.31,20.5,11111222 
LUMCON,ioos:station:LUMCON:102:1,2019-05-03T15:00:00Z,29.1870,-90.6093,2.31,20.5,11111222 
LUMCON,ioos:station:LUMCON:102:1,2019-05-03T15:15:00Z,29.1870,-90.6093,2.29,20.48,11111222 
LUMCON,ioos:station:LUMCON:102:1,2019-05-03T15:30:00Z,29.1870,-90.6093,2.29,20.4,11111222 
LUMCON,ioos:station:LUMCON:102:1,2019-05-03T15:45:00Z,29.1870,-90.6093,2.29,20.28,11111222 
LUMCON,ioos:station:LUMCON:102:1,2019-05-03T16:00:00Z,29.1870,-90.6093,2.31,20.03,11111222 
LUMCON,ioos:station:LUMCON:102:1,2019-05-03T16:15:00Z,29.1870,-90.6093,2.31,20.08,11111222 
LUMCON,ioos:station:LUMCON:102:1,2019-05-03T16:30:00Z,29.1870,-90.6093,2.3,20.08,11111222 
LUMCON,ioos:station:LUMCON:102:1,2019-05-03T16:45:00Z,29.1870,-90.6093,2.3,20.07,11111222 